Time,TemperatureF,DewpointF,PressureIn,WindDirection,WindDirectionDegrees,WindSpeedMPH,WindSpeedGustMPH,Humidity,HourlyPrecipIn,Conditions,Clouds,dailyrainin,SoftwareType,DateUTC
2013-08-31 00:13:00,75.0,64.0,-100.00,South,190,6.0,12.0,69,-99.99,,,-99.99,,2013-08-31 05:13:00,
2013-08-31 00:23:00,75.0,64.0,-100.00,South,190,6.0,12.0,69,-99.99,,,-99.99,,2013-08-31 05:23:00,
2013-08-31 00:43:00,74.0,66.0,-100.00,SW,230,6.0,14.0,76,-99.99,,,-99.99,,2013-08-31 05:43:00,
2013-08-31 00:53:00,74.0,66.0,-100.00,SW,230,6.0,14.0,76,-99.99,,,-99.99,,2013-08-31 05:53:00,
2013-08-31 01:12:00,74.0,67.0,-100.00,South,175,16.0,22.0,77,-99.99,,,-99.99,,2013-08-31 06:12:00,
2013-08-31 01:22:00,74.0,67.0,-100.00,South,175,16.0,22.0,77,-99.99,,,-99.99,,2013-08-31 06:22:00,
2013-08-31 01:32:00,74.0,67.0,-100.00,South,175,16.0,22.0,77,-99.99,,,-99.99,,2013-08-31 06:32:00,
2013-08-31 02:12:00,75.0,65.0,-100.00,SSW,200,7.0,17.0,73,-99.99,,,-99.99,,2013-08-31 07:12:00,
2013-08-31 02:22:00,75.0,65.0,-100.00,SSW,200,7.0,17.0,73,-99.99,,,-99.99,,2013-08-31 07:22:00,
2013-08-31 02:42:00,74.0,66.0,-100.00,SSW,195,10.0,14.0,76,-99.99,,,-99.99,,2013-08-31 07:42:00,
2013-08-31 02:52:00,74.0,66.0,-100.00,SSW,195,10.0,14.0,76,-99.99,,,-99.99,,2013-08-31 07:52:00,
2013-08-31 03:12:00,73.0,66.0,-100.00,South,190,7.0,14.0,79,-99.99,,,-99.99,,2013-08-31 08:12:00,
2013-08-31 03:22:00,73.0,66.0,-100.00,South,190,7.0,14.0,79,-99.99,,,-99.99,,2013-08-31 08:22:00,
2013-08-31 03:42:00,73.0,67.0,-100.00,South,180,7.0,12.0,81,-99.99,,,-99.99,,2013-08-31 08:42:00,
2013-08-31 03:52:00,73.0,67.0,-100.00,South,180,7.0,12.0,81,-99.99,,,-99.99,,2013-08-31 08:52:00,
2013-08-31 04:12:00,72.0,67.0,-100.00,SSW,200,8.0,12.0,86,-99.99,,,-99.99,,2013-08-31 09:12:00,
2013-08-31 04:23:00,72.0,67.0,-100.00,SSW,200,8.0,12.0,86,-99.99,,,-99.99,,2013-08-31 09:23:00,
2013-08-31 04:44:00,71.0,67.0,-100.00,South,180,4.0,7.0,89,-99.99,,,-99.99,,2013-08-31 09:44:00,
2013-08-31 04:53:00,71.0,67.0,-100.00,South,180,4.0,7.0,89,-99.99,,,-99.99,,2013-08-31 09:53:00,
2013-08-31 05:12:00,70.0,67.0,-100.00,ENE,60,1.0,6.0,92,-99.99,,,-99.99,,2013-08-31 10:12:00,
2013-08-31 05:23:00,70.0,67.0,-100.00,ENE,60,1.0,6.0,92,-99.99,,,-99.99,,2013-08-31 10:23:00,
2013-08-31 05:43:00,68.0,66.0,-100.00,East,90,6.0,8.0,94,-99.99,,,-99.99,,2013-08-31 10:43:00,
2013-08-31 05:53:00,68.0,66.0,-100.00,East,90,6.0,8.0,94,-99.99,,,-99.99,,2013-08-31 10:53:00,
2013-08-31 06:12:00,68.0,66.0,-100.00,SE,140,2.0,4.0,95,-99.99,,,-99.99,,2013-08-31 11:12:00,
2013-08-31 06:22:00,68.0,66.0,-100.00,SE,140,2.0,4.0,95,-99.99,,,-99.99,,2013-08-31 11:22:00,
2013-08-31 06:42:00,67.0,66.0,-100.00,SSE,155,1.0,2.0,96,-99.99,,,-99.99,,2013-08-31 11:42:00,
2013-08-31 06:52:00,67.0,66.0,-100.00,SSE,155,1.0,2.0,96,-99.99,,,-99.99,,2013-08-31 11:52:00,
2013-08-31 07:12:00,67.0,66.0,-100.00,SSE,155,4.0,7.0,98,-99.99,,,-99.99,,2013-08-31 12:12:00,
2013-08-31 07:22:00,67.0,66.0,-100.00,SSE,155,4.0,7.0,98,-99.99,,,-99.99,,2013-08-31 12:22:00,
2013-08-31 07:42:00,67.0,66.0,-100.00,East,90,4.0,7.0,98,-99.99,,,-99.99,,2013-08-31 12:42:00,
2013-08-31 07:52:00,67.0,66.0,-100.00,East,90,4.0,7.0,98,-99.99,,,-99.99,,2013-08-31 12:52:00,
2013-08-31 08:11:00,67.0,67.0,-100.00,SE,145,5.0,7.0,99,-99.99,,,-99.99,,2013-08-31 13:11:00,
2013-08-31 08:22:00,67.0,67.0,-100.00,SE,145,5.0,7.0,99,-99.99,,,-99.99,,2013-08-31 13:22:00,
2013-08-31 08:42:00,68.0,68.0,-100.00,South,180,5.0,6.0,99,-99.99,,,-99.99,,2013-08-31 13:42:00,
2013-08-31 08:52:00,68.0,68.0,-100.00,South,180,5.0,6.0,99,-99.99,,,-99.99,,2013-08-31 13:52:00,
2013-08-31 09:12:00,71.0,69.0,-100.00,South,185,7.0,11.0,94,-99.99,,,-99.99,,2013-08-31 14:12:00,
2013-08-31 09:22:00,71.0,69.0,-100.00,South,185,7.0,11.0,94,-99.99,,,-99.99,,2013-08-31 14:22:00,
2013-08-31 09:42:00,73.0,69.0,-100.00,South,185,7.0,12.0,87,-99.99,,,-99.99,,2013-08-31 14:42:00,
2013-08-31 09:52:00,73.0,69.0,-100.00,South,185,7.0,12.0,87,-99.99,,,-99.99,,2013-08-31 14:52:00,
2013-08-31 10:12:00,75.0,68.0,-100.00,South,180,9.0,16.0,80,-99.99,,,-99.99,,2013-08-31 15:12:00,
2013-08-31 10:23:00,75.0,68.0,-100.00,South,180,9.0,16.0,80,-99.99,,,-99.99,,2013-08-31 15:23:00,
2013-08-31 10:34:00,75.0,68.0,-100.00,South,180,9.0,16.0,80,-99.99,,,-99.99,,2013-08-31 15:34:00,
2013-08-31 11:14:00,80.0,63.0,-100.00,South,185,11.0,18.0,56,-99.99,,,-99.99,,2013-08-31 16:14:00,
2013-08-31 11:25:00,80.0,63.0,-100.00,South,185,11.0,18.0,56,-99.99,,,-99.99,,2013-08-31 16:25:00,
2013-08-31 11:44:00,81.0,62.0,-100.00,SSW,195,10.0,18.0,52,-99.99,,,-99.99,,2013-08-31 16:44:00,
2013-08-31 11:52:00,81.0,62.0,-100.00,SSW,195,10.0,18.0,52,-99.99,,,-99.99,,2013-08-31 16:52:00,
2013-08-31 12:13:00,82.0,62.0,-100.00,South,185,12.0,19.0,51,-99.99,,,-99.99,,2013-08-31 17:13:00,
2013-08-31 12:23:00,82.0,62.0,-100.00,South,185,12.0,19.0,51,-99.99,,,-99.99,,2013-08-31 17:23:00,
2013-08-31 12:43:00,81.0,61.0,-100.00,SSW,200,11.0,16.0,51,-99.99,,,-99.99,,2013-08-31 17:43:00,
2013-08-31 12:53:00,81.0,61.0,-100.00,SSW,200,11.0,16.0,51,-99.99,,,-99.99,,2013-08-31 17:53:00,
2013-08-31 13:12:00,79.0,63.0,-100.00,SW,225,9.0,19.0,59,-99.99,,,-99.99,,2013-08-31 18:12:00,
2013-08-31 13:22:00,79.0,63.0,-100.00,SW,225,9.0,19.0,59,-99.99,,,-99.99,,2013-08-31 18:22:00,
2013-08-31 13:42:00,79.0,64.0,-100.00,SW,215,8.0,14.0,60,-99.99,,,-99.99,,2013-08-31 18:42:00,
2013-08-31 13:52:00,79.0,64.0,-100.00,SW,215,8.0,14.0,60,-99.99,,,-99.99,,2013-08-31 18:52:00,
2013-08-31 14:12:00,78.0,65.0,-100.00,SW,220,6.0,10.0,63,-99.99,,,-99.99,,2013-08-31 19:12:00,
2013-08-31 14:22:00,78.0,65.0,-100.00,SW,220,6.0,10.0,63,-99.99,,,-99.99,,2013-08-31 19:22:00,
2013-08-31 14:42:00,77.0,67.0,-100.00,SSE,165,9.0,12.0,72,-99.99,,,-99.99,,2013-08-31 19:42:00,
2013-08-31 14:52:00,77.0,67.0,-100.00,SSE,165,9.0,12.0,72,-99.99,,,-99.99,,2013-08-31 19:52:00,
2013-08-31 15:12:00,77.0,69.0,-100.00,South,170,7.0,12.0,76,-99.99,,,-99.99,,2013-08-31 20:12:00,
2013-08-31 15:22:00,77.0,69.0,-100.00,South,170,7.0,12.0,76,-99.99,,,-99.99,,2013-08-31 20:22:00,
2013-08-31 15:43:00,78.0,69.0,-100.00,South,185,7.0,16.0,75,-99.99,,,-99.99,,2013-08-31 20:43:00,
2013-08-31 15:53:00,78.0,69.0,-100.00,South,185,7.0,16.0,75,-99.99,,,-99.99,,2013-08-31 20:53:00,
2013-08-31 16:12:00,81.0,65.0,-100.00,SW,220,12.0,17.0,59,-99.99,,,-99.99,,2013-08-31 21:12:00,
2013-08-31 16:22:00,81.0,65.0,-100.00,SW,220,12.0,17.0,59,-99.99,,,-99.99,,2013-08-31 21:22:00,
2013-08-31 16:44:00,83.0,63.0,-100.00,WSW,250,13.0,18.0,51,-99.99,,,-99.99,,2013-08-31 21:44:00,
2013-08-31 16:54:00,83.0,63.0,-100.00,WSW,250,13.0,18.0,51,-99.99,,,-99.99,,2013-08-31 21:54:00,
2013-08-31 17:13:00,84.0,62.0,-100.00,West,260,17.0,24.0,47,-99.99,,,-99.99,,2013-08-31 22:13:00,
2013-08-31 17:24:00,84.0,62.0,-100.00,West,260,17.0,24.0,47,-99.99,,,-99.99,,2013-08-31 22:24:00,
2013-08-31 17:44:00,84.0,61.0,-100.00,West,265,16.0,26.0,46,-99.99,,,-99.99,,2013-08-31 22:44:00,
2013-08-31 17:53:00,84.0,61.0,-100.00,West,265,16.0,26.0,46,-99.99,,,-99.99,,2013-08-31 22:53:00,
2013-08-31 18:12:00,84.0,60.0,-100.00,West,265,14.0,26.0,44,-99.99,,,-99.99,,2013-08-31 23:12:00,
2013-08-31 18:22:00,84.0,60.0,-100.00,West,265,14.0,26.0,44,-99.99,,,-99.99,,2013-08-31 23:22:00,
2013-08-31 18:42:00,83.0,60.0,-100.00,West,270,19.0,32.0,45,-99.99,,,-99.99,,2013-08-31 23:42:00,
2013-08-31 18:52:00,83.0,60.0,-100.00,West,270,19.0,32.0,45,-99.99,,,-99.99,,2013-08-31 23:52:00,
2013-08-31 19:11:00,81.0,59.0,-100.00,West,270,19.0,32.0,46,-99.99,,,-99.99,,2013-09-01 00:11:00,
2013-08-31 19:22:00,81.0,59.0,-100.00,West,270,19.0,32.0,46,-99.99,,,-99.99,,2013-09-01 00:22:00,
2013-08-31 19:42:00,71.0,58.0,-100.00,NNW,330,23.0,42.0,64,-99.99,,,-99.99,,2013-09-01 00:42:00,
2013-08-31 19:52:00,71.0,58.0,-100.00,NNW,330,23.0,42.0,64,-99.99,,,-99.99,,2013-09-01 00:52:00,
2013-08-31 20:02:00,71.0,58.0,-100.00,NNW,330,23.0,42.0,64,-99.99,,,-99.99,,2013-09-01 01:02:00,
2013-08-31 21:12:00,68.0,59.0,-100.00,NW,325,14.0,22.0,74,-99.99,,,-99.99,,2013-09-01 02:12:00,
2013-08-31 21:22:00,68.0,59.0,-100.00,NW,325,14.0,22.0,74,-99.99,,,-99.99,,2013-09-01 02:22:00,
2013-08-31 21:43:00,67.0,61.0,-100.00,NW,325,10.0,17.0,80,-99.99,,,-99.99,,2013-09-01 02:43:00,
2013-08-31 21:53:00,67.0,61.0,-100.00,NW,325,10.0,17.0,80,-99.99,,,-99.99,,2013-09-01 02:53:00,
2013-08-31 22:12:00,66.0,62.0,-100.00,NW,325,8.0,15.0,86,-99.99,,,-99.99,,2013-09-01 03:12:00,
2013-08-31 22:23:00,66.0,62.0,-100.00,NW,325,8.0,15.0,86,-99.99,,,-99.99,,2013-09-01 03:23:00,
2013-08-31 22:44:00,64.0,62.0,-100.00,NW,320,7.0,11.0,92,-99.99,,,-99.99,,2013-09-01 03:44:00,
2013-08-31 22:54:00,64.0,62.0,-100.00,NW,320,7.0,11.0,92,-99.99,,,-99.99,,2013-09-01 03:54:00,
2013-08-31 23:03:00,-999.0,-99.9,-100.00,NW,305,6.0,8.0,-999,-99.99,,,-99.99,,2013-09-01 04:03:00,
2013-08-31 23:14:00,63.0,61.0,-100.00,NW,305,6.0,8.0,95,-99.99,,,-99.99,,2013-09-01 04:14:00,
2013-08-31 23:25:00,63.0,61.0,-100.00,NW,305,6.0,8.0,95,-99.99,,,-99.99,,2013-09-01 04:25:00,
2013-08-31 23:43:00,63.0,62.0,-100.00,NW,305,7.0,10.0,96,-99.99,,,-99.99,,2013-09-01 04:43:00,
2013-08-31 23:54:00,63.0,62.0,-100.00,NW,305,7.0,10.0,96,-99.99,,,-99.99,,2013-09-01 04:54:00,